Location: Dead Woman Crossing
(43.5369°N, 106.3228°W)
Time: 07:26:03
(UTC+00:00)

M-CUBED/EXP-1 PRIME - Pass Details

Date: 02 July 2022
Orbit: 422 x 631 km, 101.7° (Epoch: 14 August)

Event Time Altitude Azimuth Distance (km) Brightness Sun altitude
Exits shadow 07:51:04 35° 72° (ENE) 721 ? -22.7°
Maximum altitude 07:51:12 35° 66° (ENE) 720 ? -22.7°
Drops below altitude 10° 07:54:18 10° 358° (N) 1,584 ? -22.6°
Sets 07:56:28 0° 350° (N) 2,491 ? -22.6°
